Tracking 19396 objects as of 13-Dec-2018
HD Live streaming from Space Station
objects crossing your sky now

CUBEBUG 2

Track CUBEBUG 2 now!
10-day predictions
CUBEBUG 2 is classified as:


NORAD ID: 39440
Int'l Code: 2013-066AA
Perigee: 593.8 km
Apogee: 705.9 km
Inclination: 97.6 °
Period: 97.6 minutes
Semi major axis: 7020 km
RCS: Unknown
Launch date: November 21, 2013
Source: Argentina (ARGN)
Launch site: Orenburg, Russia (OREN)

Uplink (MHz):
Downlink (MHz): 437.445
Beacon (MHz):
Mode: 1k2AFSK 9k6FSK
Call sign: CUBEB2-6
Status: Active

aabbcc
Your satellite tracking list
Your tracking list is empty




NASA's NSSDC Master Catalog

Two Line Element Set (TLE):
1 39440U 13066AA  18345.99315009  .00000216  00000-0  37118-4 0  9996
2 39440  97.5987 350.6407 0079839 339.0011  20.7927 14.75764635272146
Source of the keplerian elements: Caltech